Regional Weather Roundup
Issued by NWS

Home | Current Version | Previous Version | Text Only | Print | Product List | Glossary On
Versions: 1 2 3 4 5 6 7 8 9 10 11 12 13 14 15 16 17 18 19 20 21 22 23 24 25 26 27 28 29 30 31 32 33 34 35 36 37 38 39 40 41 42 43 44 45 46 47 48 49 50
000
ASUS43 KMPX 311710
RWRMN
WEATHER ROUNDUP FOR MINNESOTA
NATIONAL WEATHER SERVICE TWIN CITIES/CHANHASSEN MN
1100 AM CST SAT JAN 31 2015


NOTE: "FAIR" INDICATES FEW OR NO CLOUDS BELOW 12,000 FEET WITH NO
SIGNIFICANT WEATHER AND/OR OBSTRUCTIONS TO VISIBILITY. N/A MEANS
CURRENT SKY AND/OR WEATHER CONDITIONS ARE NOT AVAILABLE.

MNZ060>063-068>070-311800-
   Twin Cities Metro

CITY           SKY/WX    TMP DP  RH WIND       PRES   REMARKS
TWIN CITIES    CLOUDY    28  21  75 N9        30.21R WCI  19
ST PAUL        CLOUDY    29  21  72 N12       30.23R WCI  19
CRYSTAL        CLOUDY    29  21  72 NE8       30.21R WCI  21
BLAINE         CLOUDY    28  23  80 N12       30.21R WCI  18
LAKEVILLE      PTSUNNY   27  25  93 NE5       30.19S WCI  21
EDEN PRAIRIE   CLOUDY    29  22  75 N7        30.20R WCI  22
SOUTH ST PAUL  CLOUDY    29  22  75 N6        30.21R WCI  23
LAKE ELMO      CLOUDY    30  23  74 N5        30.22R WCI  25
$$
MNZ001>005-007-008-013>017-022>024-027-028-311800-
   Northwest Minnesota

CITY           SKY/WX    TMP DP  RH WIND       PRES   REMARKS
BEMIDJI        SUNNY      6  -5  59 N9        30.31R WCI  -8
HALLOCK        MOSUNNY   -2 -11  65 N18G24    30.49R WCI -24
ROSEAU         SUNNY      0  -9  65 N13       30.43S WCI -18
WARROAD        SUNNY      0 -11  60 N10       30.43R WCI -17
THIEF RVR FALL SUNNY      1  -8  66 N13       30.41R WCI -16
CROOKSTON      SUNNY      5  -6  61 NE17      30.44S WCI -14
FOSSTON        SUNNY      9   0  66 N17       30.36R WCI -10
DETROIT LAKES  MOSUNNY   12   5  73 N6        30.30R WCI   3
MOORHEAD       SUNNY     12   1  62 N20G26    30.37R WCI  -6
PARK RAPIDS    MOSUNNY   15  -6  39 N13G20    30.27R WCI   1
MAHNOMEN       FAIR       8  -3  60 N16       30.33S WCI  -9
$$
MNZ006-009>011-018-025>026-311800-
   North Central Minnesota

CITY           SKY/WX    TMP DP  RH WIND       PRES   REMARKS
BAUDETTE       MOSUNNY   -1  -8  72 N15       30.38R WCI -21
FLAG ISLAND    SUNNY     -6 -11  77 NW15      30.42R WCI -27
INTL FALLS     CLOUDY     6  -2  69 NE10      30.34R HAZE    WCI  -9
WASKISH        SUNNY      5  -2  72 N9        30.35R WCI  -9
BIG FORK       FLURRIES  10   1  67 N5        30.30R WCI   2
LONGVILLE      SUNNY     16   5  62 N6        30.27R WCI   7
GRAND RAPIDS   MOSUNNY   14   5  67 N12       30.25R WCI   0
CRANE LAKE     SUNNY      7  -2  66 N6        30.33R WCI  -3
ORR            MOSUNNY   10   0  61 N3        30.26R
COOK           MOSUNNY   10   1  67 N8        30.27R WCI  -1
WALKER         FAIR      10  -6  48 N7        30.29R WCI  -1
$$
MNZ012-019>021-037-311800-
   Northeast Minnesota

CITY           SKY/WX    TMP DP  RH WIND       PRES   REMARKS
DULUTH         MOSUNNY   18   6  59 N13       30.20R WCI   5
ELY            PTSUNNY   10   1  67 NW10G18   30.24R WCI  -3
HIBBING        MOSUNNY   14   4  64 NW12      30.25R WCI   0
EVELETH        SUNNY     14   5  67 N7        30.25R WCI   4
DULUTH HARBOR  SUNNY     21  10  63 NW10      30.28R WCI  10
TWO HARBORS    SUNNY     21   9  58 NW6       30.21R WCI  14
SILVER BAY     MOSUNNY   19   3  49 NW8       30.21R WCI   9
GRAND MARAIS     N/A     16   2  54 VRB7G21   30.24R WCI   6
G MARAIS ARPRT MOSUNNY    7  -2  66 NW7       30.15R WCI  -5
$$
MNZ029>031-032-039>041-046>048-054>057-064-311800-
   West Central Minnesota

CITY           SKY/WX    TMP DP  RH WIND       PRES   REMARKS
FERGUS FALLS   MOSUNNY   16   7  67 N12       30.31S WCI   3
WHEATON        CLOUDY    14   9  79 N17       30.30S WCI  -3
MORRIS         CLOUDY    21  18  86 N14       30.23S WCI   8
ALEXANDRIA     CLOUDY    22  15  75 NE14      30.23R WCI   9
ELBOW LAKE     CLOUDY    19  14  81 N13G20    30.24S WCI   6
WADENA         MOSUNNY   19   1  45 N14G20    30.25S WCI   6
GLENWOOD       CLOUDY    21  19  93 NE10      30.23R WCI  10
APPLETON       CLOUDY    25  19  80 N13       30.23S WCI  13
BENSON         CLOUDY    25  19  80 E8        30.23S WCI  16
ORTONVILLE     CLOUDY    19  14  79 N16       30.25S WCI   5
MADISON        CLOUDY    27  23  86 N12       30.24S FOG     WCI  16
WILLMAR        CLOUDY    27  21  80 NE8       30.22S WCI  18
$$
MNZ033>034-036-042>043-049>051-058-059-311800-
   Central Minnesota

CITY           SKY/WX    TMP DP  RH WIND       PRES   REMARKS
ST CLOUD       CLOUDY    26  18  71 NE8G17    30.22R WCI  18
SAUK CENTRE    CLOUDY    24  17  77 NE12      30.22R WCI  13
PAYNESVILLE    CLOUDY    23  19  87 NW14      30.21S WCI  10
AITKIN         SUNNY     25  10  54 N12       30.24R WCI  14
PINE RIVER     SUNNY     16   7  67 N14       30.29R WCI   1
BRAINERD       CLOUDY    20   8  60 N14       30.25R WCI   7
STAPLES        MOSUNNY   19  10  68 N10       30.25R WCI   8
LONG PRAIRIE   PTSUNNY   23  14  68 N14       30.22S WCI  11
LITTLE FALLS   PTSUNNY   23  14  68 N7        30.24R WCI  15
LITCHFIELD     CLOUDY    27  25  93 NE12      30.21F WCI  16
BUFFALO        CLOUDY    27  21  80 N8        30.22R WCI  18
MAPLE LAKE     CLOUDY    27  23  84 NE9       30.22R WCI  18
$$
MNZ037-044-045-052-053-311800-
   East Central Minnesota

CITY           SKY/WX    TMP DP  RH WIND       PRES   REMARKS
PRINCETON      CLOUDY    27  19  74 NE9       30.22R WCI  17
MORA           CLOUDY    27  18  69 NE5       30.24R WCI  21
CAMBRIDGE      CLOUDY    28  18  64 N8        30.21R WCI  20
RUSH CITY      CLOUDY    26  18  73 NE9       30.23R WCI  17
MOOSE LAKE     MOSUNNY   23  12  63 NE10      30.22R WCI  12
HINCKLEY         N/A     27  18  69 N10       30.23R WCI  17
CLOQUET        SUNNY     18   9  68 N9G17     30.22R WCI   6
MCGREGOR       MOSUNNY   21  12  68 N10       30.25R WCI  10
$$
MNZ071>073-080-081-089-090-097-098-311800-
   Southwest Minnesota

CITY           SKY/WX    TMP DP  RH WIND       PRES   REMARKS
MONTEVIDEO     CLOUDY    25  23  93 NE7       30.24R FOG     WCI  17
GRANITE FALLS  CLOUDY    24  23  93 N5        30.23S FOG     WCI  19
CANBY          CLOUDY    22  21  94 N13       30.23S FOG     WCI  10
MARSHALL       CLOUDY    23  21  93 N12       30.22R WCI  12
REDWOOD FALLS  CLOUDY    26  24  92 N9        30.20S FOG     WCI  17
OLIVIA         CLOUDY    27  25  93 N12       30.20S WCI  16
PIPESTONE      FOG       23  21  93 E6        30.14S VSB 1/4 WCI  16
WINDOM         CLOUDY    27  25  93 N13       30.17R FOG     WCI  16
WORTHINGTON    CLOUDY    25  21  86 NE13      30.15S WCI  13
JACKSON        CLOUDY    28  27  93 N14       30.15S WCI  17
TRACY          FOG       25  24  96 N8        30.19S VSB 3/4 WCI  16
SLAYTON        FOG       24  23  98 CALM      30.16S VSB 1/2
$$
MNZ065>067-074>077-082>085-091>093-311800-
   South Central Minnesota

CITY           SKY/WX    TMP DP  RH WIND       PRES   REMARKS
MANKATO        CLOUDY    27  23  86 NE6       30.18S WCI  20
NEW ULM        CLOUDY    27  25  93 NE6       30.19R WCI  20
ST JAMES       CLOUDY    27  25  93 N8        30.20R WCI  18
FAIRMONT       CLOUDY    25  21  86 N9        30.15F WCI  15
GLENCOE        CLOUDY    28  26  93 N5        30.19S WCI  23
FARIBAULT      PTSUNNY   28  25  86 NE5       30.18F FOG     WCI  23
OWATONNA       PTSUNNY   28  25  86 N5        30.18R FOG     WCI  23
WASECA         CLOUDY    28  27  93 NE6       30.19R FOG     WCI  22
ALBERT LEA     CLOUDY    28  28 100 NE8       30.16R FOG     WCI  20
$$
MNZ078>079-086>088-094>096-311800-
   Southeast Minnesota

CITY           SKY/WX    TMP DP  RH WIND       PRES   REMARKS
ROCHESTER      CLOUDY    28  24  85 E3        30.17R
RED WING       CLOUDY    30  23  74 CALM      30.20R
STANTON        CLOUDY    29  24  82 NE8       30.18S WCI  21
DODGE CENTER   CLOUDY    28  27  93 NE7       30.17R WCI  21
WINONA         CLOUDY    30  23  74 CALM      30.20F
AUSTIN         CLOUDY    28  25  86 N5        30.16S WCI  23
PRESTON        CLOUDY    27  23  85 N3        30.17R
$$
ABBREVIATIONS USED IN REMARKS
   TC - TEMPERATURES IN CELSIUS
  WCI - WIND CHILL INDEX
   HX - HEAT INDEX
  VSB - VISIBILITY
$$


USA.gov is the U.S. government's official web portal to all federal, state and local government web resources and services.